SL-12 DEB, 41562

Orbit data source: Space-Track

SL-12 DEB, 41562 is space debris in HEO originally from a launch on Thu, 25 Dec 2008 UTC launched from the Tyuratam Missile And Space Complex (TTMTR). Debris objects in space refer to the collection of defunct objects orbiting the Earth. Examples of debris include non-operational satellites, rocket bodies, and fragments generated from explosions, collisions, or faulty payload assembly.

Loading next visibility...
Identifier
41562, 2008-067L
Orbit
HEO
Last TLE update
2 days ago
Origin
Manufacturer
RKKE
Mission
Spacecraft
Bus & Motor
Unknown
Mass
Unknown
Launch date (UTC)
2008-12-25 (17 years ago)
Launch vehicle
Unknown
Launch site
Tyuratam Missile And Space Complex (TTMTR)
Object type
Payload
Rocket body
Debris
Shape & HBR
Unknown
Radar Cross Section
Small (<0.1 m²)

Expand to show TLE details & history

TLE from 2 days ago
0 SL-12 DEB
1 41562U 08067L   25181.44111350  .00000419  00000-0  67884-2 0  9994
2 41562  65.4342 324.9769 5580611 259.7697  36.1134  4.21080811142162
Epoch: 2025-06-30T10:35Z
TLE epoch observation values (Epoch: 2025-06-30T10:35:12.206Z)
Latitude
0.00006°
Longitude
-112.59349°
Altitude
6,012.361 km
Speed
6.304 km/s
True Right ascension
21h 39m 49s
True Declination
0° 00' 00"
Sunlit
Object was in daylight at epoch
Visualization orbit readout
Latitude
-63.07345°
Longitude
-176.66551°
Altitude
999.442 km
Speed
9.148 km/s
Apparent Right ascension
22h 50m 29s
Apparent Declination
-68° 57' 10"
Sunlit
Object is in full shadow
Visualization observer readout
Local Sidereal Time
13:40:46
Azimuth
156.017° SSE
Elevation
-53.294°
Doppler factor
1
Orbital elements
Apogee altitude
18,859.319 km
Perigee altitude
780.384 km
Semi-major axis
16,197.989 km
Eccentricity
0.55806
Inclination
65.4342°
RAAN
324.9769°
Arg. of periapsis
259.7697°
True anomaly
Unknown
Mean anomaly
36.1134°
Eccentric anomaly
Unknown
Mean motion
1.05281 °/min
Orbital period
341.94 mins
BSTAR
0.0067884
Loading maneuver chart data...
Loading SW <> Apogee altitude chart data...
Loading historical data...
Loading historical data...
Loading historical data...
Loading historical data...
Loading historical data...
Loading historical data...
Loading historical data...

SL-12 DEB Visibility forecast

Observer location: undefined°, undefined°

Span
Click to sort rows by Start time (UTC) header in descending order
Start Az.
Max El. time (UTC)
Max El. Az.
Max El.
End time (UTC)
End Az.
213 mins2025-07-02 08:09:46.368Z144.402° SSE2025-07-02 09:09:46.368Z72.052° E38.328°2025-07-02 11:42:46.368Z34.318° NE
262 mins2025-07-02 14:07:46.368Z260.607° W2025-07-02 17:28:46.368Z29.098° NE40.677°2025-07-02 18:29:46.368Z111.076° ESE
145 mins2025-07-02 21:47:46.368Z333.059° NNW2025-07-02 23:36:46.368Z298.03° NW28.458°2025-07-03 00:12:46.368Z244.18° WSW
|